GW0478 Weather Reports


time (UTC)temp
F
wind
direction
speed
knots
gust
knots
rain 1hr
in
rain 24hr
in
rain mn
in
humidity
%
barometer
mb
20260509102113 51 152 0.9 2.6 0.00 0.00 0.00 61 996.6
20260509101609 51 137 2.6 7.0 0.00 0.00 0.00 59 996.5
20260509101106 51 128 0.9 4.3 0.00 0.00 0.00 59 996.5
20260509100603 52 188 2.6 5.2 0.00 0.00 0.00 58 996.7
20260509095557 52 173 2.6 7.8 0.00 0.00 0.00 61 997.1
20260509095055 51 156 2.6 2.6 0.00 0.00 0.00 69 997.1
20260509094551 52 157 2.6 4.3 0.00 0.00 0.00 70 997.2
20260509094048 52 176 0.9 2.6 0.00 0.00 0.00 71 997.3
20260509093547 51 194 2.6 7.0 0.00 0.00 0.00 72 997.2
20260509093044 51 204 3.5 4.3 0.00 0.00 0.00 78 997.3
20260509092541 51 228 3.5 6.1 0.00 0.00 0.00 76 997.1
20260509092040 51 237 5.2 9.6 0.00 0.00 0.00 72 996.9
20260509091537 51 176 0.9 5.2 0.00 0.00 0.00 68 997.6
20260509091033 48 208 2.6 6.1 0.00 0.00 0.00 70 997.5
20260509090531 47 273 2.6 4.3 0.00 0.00 0.00 77 997.7
20260509090029 44 108 0.0 0.0 0.00 0.00 0.00 87 997.3
20260509085526 44 106 0.0 0.9 0.00 0.00 0.00 93 997.5
20260509085021 43 106 0.0 0.0 0.00 0.00 0.00 93 997.4
20260509084519 43 108 0.0 0.9 0.00 0.00 0.00 97 997.4
20260509084016 43 116 0.0 0.0 0.00 0.00 0.00 97 997.4
20260509083513 43 119 0.0 0.0 0.00 0.00 0.00 99 997.8
20260509083010 42 119 0.0 0.0 0.00 0.00 0.00 99 997.6
20260509082507 42 120 0.0 0.0 0.00 0.00 0.00 99 997.6
20260509082004 42 125 0.0 0.0 0.00 0.00 0.00 99 997.8
20260509081501 42 126 0.0 0.0 0.00 0.00 0.00 99 997.9
20260509080958 41 134 0.0 0.0 0.00 0.00 0.00 97 997.9
20260509080456 41 117 0.0 0.0 0.00 0.00 0.00 99 998.0
20260509075954 41 118 0.0 0.0 0.00 0.00 0.00 99 998.1
20260509075451 41 119 0.0 0.0 0.00 0.00 0.00 99 998.2
20260509074949 41 119 0.0 0.0 0.00 0.00 0.00 99 998.3
20260509074446 40 141 0.0 0.0 0.00 0.00 0.00 99 998.2
20260509073942 40 162 0.9 0.9 0.00 0.00 0.00 99 998.4
20260509073438 40 117 0.0 0.0 0.00 0.00 0.00 99 998.1
20260509072935 40 119 0.0 0.0 0.00 0.00 0.00 99 998.2
20260509072432 39 129 0.0 0.0 0.00 0.00 0.00 99 998.3
20260509071929 40 142 0.0 0.0 0.00 0.00 0.00 99 998.7
20260509071425 39 129 0.0 0.0 0.00 0.00 0.00 99 998.6
20260509070923 39 130 0.0 0.0 0.00 0.00 0.00 99 998.5
20260509070420 40 133 0.0 0.0 0.00 0.00 0.00 99 998.8
20260509065915 40 135 0.0 0.0 0.00 0.00 0.00 99 999.0
20260509065412 40 136 0.0 0.0 0.00 0.00 0.00 99 999.0
20260509064908 39 147 0.9 1.7 0.00 0.00 0.00 99 999.2
20260509064406 39 147 0.0 0.0 0.00 0.00 0.00 99 999.3
20260509063903 40 227 0.9 0.9 0.00 0.00 0.00 99 999.3
20260509063359 40 118 0.0 0.0 0.00 0.00 0.00 99 999.0
20260509062856 41 120 0.0 0.0 0.00 0.00 0.00 99 999.1
20260509062353 41 121 0.0 0.0 0.00 0.00 0.00 99 999.2
20260509061850 41 128 0.0 0.0 0.00 0.00 0.00 99 999.6
20260509061349 41 130 0.0 0.9 0.00 0.00 0.00 99 999.5
20260509060845 41 133 0.0 0.0 0.00 0.00 0.00 99 999.5
20260509060342 41 116 0.9 0.9 0.00 0.00 0.00 99 999.5
20260509055837 41 111 0.0 0.0 0.00 0.00 0.00 99 999.6
20260509055333 41 110 0.0 0.0 0.00 0.00 0.00 98 999.6
20260509054830 42 110 0.0 0.0 0.00 0.00 0.00 98 999.6
20260509054327 42 112 0.0 0.9 0.00 0.00 0.00 96 999.7
20260509053825 42 111 0.0 0.9 0.00 0.00 0.00 95 1000.1
20260509053322 42 111 0.0 0.0 0.00 0.00 0.00 94 999.9
20260509052820 42 102 0.9 0.9 0.00 0.00 0.00 94 1000.0
20260509052318 43 100 0.9 0.9 0.00 0.00 0.00 94 1000.1
20260509051815 43 103 0.9 0.9 0.00 0.00 0.00 93 1000.1
20260509051313 43 116 0.0 0.9 0.00 0.00 0.00 91 1000.2
20260509050809 44 102 0.0 0.0 0.00 0.00 0.00 92 1000.1
20260509050306 44 102 0.0 0.0 0.00 0.00 0.00 92 1000.4
20260509045803 45 104 0.0 0.0 0.00 0.00 0.00 90 1000.5
20260509045300 45 106 0.0 0.0 0.00 0.00 0.00 87 1000.4
20260509044757 45 114 0.0 0.0 0.00 0.00 0.00 87 1000.2
20260509044255 45 112 0.0 0.9 0.00 0.00 0.00 87 1000.3
20260509043751 46 112 0.0 0.9 0.00 0.00 0.00 86 1000.4
20260509043247 46 112 0.9 1.7 0.00 0.00 0.00 86 1000.5
20260509042743 45 111 0.9 1.7 0.00 0.00 0.00 87 1000.9
20260509042240 44 117 1.7 1.7 0.00 0.00 0.00 90 1000.8
20260509041736 44 109 0.0 0.9 0.00 0.00 0.00 93 1000.9
20260509041233 44 126 0.0 0.0 0.00 0.00 0.00 94 1001.0
20260509040732 44 148 0.9 0.9 0.00 0.00 0.00 94 1001.1
20260509040229 45 113 0.0 0.0 0.00 0.00 0.00 92 1001.3
20260509035725 45 114 0.0 0.9 0.00 0.00 0.00 91 1001.1
20260509035222 45 94 0.0 0.9 0.00 0.00 0.00 91 1001.0
20260509034719 44 81 0.0 0.0 0.00 0.00 0.00 91 1001.2
20260509034217 44 81 0.0 0.0 0.00 0.00 0.00 90 1001.1
20260509033714 45 81 0.0 0.9 0.00 0.00 0.00 91 1001.1
20260509033211 45 84 0.0 0.0 0.00 0.00 0.00 91 1001.4
20260509032708 45 84 0.0 0.9 0.00 0.00 0.00 91 1001.3
20260509032205 45 76 0.0 0.9 0.00 0.00 0.00 91 1001.4
20260509031702 45 77 0.9 0.9 0.00 0.00 0.00 92 1001.5
20260509031159 45 93 0.0 0.0 0.00 0.00 0.00 91 1001.6
20260509030658 45 95 0.0 0.9 0.00 0.00 0.00 92 1001.6
20260509030155 45 112 0.0 0.0 0.00 0.00 0.00 91 1001.7
20260509025651 45 114 0.0 0.0 0.00 0.00 0.00 90 1001.8
20260509025147 45 125 0.0 0.0 0.00 0.00 0.00 91 1001.7
20260509024642 45 152 0.9 0.9 0.00 0.00 0.00 90 1002.0
20260509024138 45 93 0.0 0.0 0.00 0.00 0.00 89 1002.0
20260509023636 45 82 1.7 1.7 0.00 0.00 0.00 89 1002.0
20260509023133 45 82 1.7 1.7 0.00 0.00 0.00 89 1001.8
20260509022629 45 139 0.9 0.9 0.00 0.00 0.00 89 1002.0
20260509022127 45 142 0.9 0.9 0.00 0.00 0.00 88 1002.0
20260509021624 46 81 0.9 0.9 0.00 0.00 0.00 88 1002.0
20260509021121 46 93 0.0 0.9 0.00 0.00 0.00 88 1002.0
20260509020619 46 88 0.9 2.6 0.00 0.00 0.00 87 1001.8
20260509020116 46 94 0.9 0.9 0.00 0.00 0.00 87 1001.9
20260509015615 46 147 1.7 1.7 0.00 0.00 0.00 87 1001.9
20260509015112 46 147 1.7 1.7 0.00 0.00 0.00 87 1002.0
20260509014608 46 79 0.9 1.7 0.00 0.00 0.00 87 1002.0
20260509014105 46 210 1.7 1.7 0.00 0.00 0.00 86 1002.2
20260509013602 46 121 0.9 1.7 0.00 0.00 0.00 87 1001.7
20260509013057 46 147 0.0 0.0 0.00 0.00 0.00 87 1001.8
20260509012554 46 125 2.6 2.6 0.00 0.00 0.00 85 1001.7
20260509012051 46 119 1.7 1.7 0.00 0.00 0.00 83 1001.8
20260509011549 46 144 0.0 0.9 0.00 0.00 0.00 83 1001.9
20260509011046 47 132 1.7 1.7 0.00 0.00 0.00 82 1001.8
20260509010544 47 91 0.9 1.7 0.00 0.00 0.00 81 1001.6
20260509010040 48 106 2.6 2.6 0.00 0.00 0.00 78 1001.5
20260509005538 48 111 0.9 0.9 0.00 0.00 0.00 76 1002.0
20260509005033 48 127 2.6 2.6 0.00 0.00 0.00 74 1002.0
20260509004530 49 127 1.7 1.7 0.00 0.00 0.00 73 1001.8
20260509004027 49 121 2.6 2.6 0.00 0.00 0.00 72 1001.5
20260509003525 50 111 2.6 4.3 0.00 0.00 0.00 70 1001.5
20260509003022 50 126 1.7 1.7 0.00 0.00 0.00 69 1001.9
20260509002519 50 101 0.9 2.6 0.00 0.00 0.00 69 1001.7
20260509002016 51 128 3.5 4.3 0.00 0.00 0.00 60 1001.9
20260509001514 51 85 0.9 1.7 0.00 0.00 0.00 56 1001.7
20260509001010 51 84 0.9 0.9 0.00 0.00 0.00 57 1001.7
20260509000508 52 81 1.7 1.7 0.00 0.00 0.00 54 1001.5
20260509000004 52 80 0.0 1.7 0.00 0.00 0.00 54 1001.9
20260508235502 52 74 0.9 1.7 0.00 0.00 0.00 55 1001.6
20260508234958 52 80 0.9 2.6 0.00 0.00 0.00 53 1001.8
20260508234455 53 56 1.7 1.7 0.00 0.00 0.00 54 1001.7
20260508233952 53 78 0.9 4.3 0.00 0.00 0.00 54 1001.8
20260508233452 53 107 1.7 2.6 0.00 0.00 0.00 52 1001.7
20260508232948 54 110 2.6 5.2 0.00 0.00 0.00 51 1001.6
20260508232445 55 57 2.6 2.6 0.00 0.00 0.00 50 1001.6
20260508231942 55 90 3.5 5.2 0.00 0.00 0.00 51 1001.8
20260508231440 55 68 1.7 6.1 0.00 0.00 0.00 50 1001.6
20260508230936 55 72 4.3 7.0 0.00 0.00 0.00 50 1001.6
20260508230433 55 82 3.5 7.0 0.00 0.00 0.00 49 1001.6
20260508225930 55 29 4.3 8.7 0.00 0.00 0.00 50 1001.6
20260508225427 55 49 4.3 7.8 0.00 0.00 0.00 49 1001.4
20260508224924 55 65 4.3 9.6 0.00 0.00 0.00 50 1001.5
20260508224422 55 67 4.3 7.0 0.00 0.00 0.00 50 1001.5
20260508223919 55 80 3.5 6.1 0.00 0.00 0.00 51 1001.5
20260508223417 55 93 3.5 7.8 0.00 0.00 0.00 48 1001.5
20260508222914 55 66 4.3 7.8 0.00 0.00 0.00 49 1001.6
20260508222411 55 4 6.1 11.3 0.00 0.00 0.00 49 1001.5
20260508221908 56 76 1.7 7.8 0.00 0.00 0.00 50 1001.6
20260508221403 55 54 3.5 7.0 0.00 0.00 0.00 50 1001.5
20260508220900 55 22 2.6 7.0 0.00 0.00 0.00 50 1001.3
20260508220356 56 33 4.3 9.6 0.00 0.00 0.00 48 1001.6
20260508215853 58 37 5.2 8.7 0.00 0.00 0.00 47 1001.5
20260508215349 57 57 9.6 13.9 0.00 0.00 0.00 48 1001.6
20260508214846 57 32 3.5 6.1 0.00 0.00 0.00 49 1001.4
20260508214344 56 58 2.6 5.2 0.00 0.00 0.00 50 1001.5
20260508213840 55 44 5.2 8.7 0.00 0.00 0.00 50 1001.2
20260508213337 56 96 1.7 5.2 0.00 0.00 0.00 49 1001.3
20260508212833 57 89 5.2 7.0 0.00 0.00 0.00 48 1001.1
20260508212330 56 124 3.5 5.2 0.00 0.00 0.00 50 1001.1
20260508211825 56 90 4.3 7.8 0.00 0.00 0.00 49 1001.1
20260508211321 56 92 2.6 6.1 0.00 0.00 0.00 50 1001.1
20260508210819 56 100 2.6 6.1 0.00 0.00 0.00 51 1001.0
20260508210316 57 72 4.3 6.1 0.00 0.00 0.00 49 1001.0
20260508205813 58 61 4.3 7.0 0.00 0.00 0.00 48 1000.9
20260508205308 57 108 0.9 4.3 0.00 0.00 0.00 49 1001.1
20260508204805 57 90 0.9 4.3 0.00 0.00 0.00 50 1001.3
20260508204302 58 110 2.6 6.1 0.00 0.00 0.00 48 1000.9
20260508203758 60 82 4.3 8.7 0.00 0.00 0.00 46 1000.9
20260508203254 60 37 3.5 8.7 0.00 0.00 0.00 46 1001.2
20260508202750 61 289 7.0 13.0 0.00 0.00 0.00 36 1001.0
20260508202248 60 328 3.5 8.7 0.00 0.00 0.00 36 1001.1
20260508201745 60 310 8.7 13.0 0.00 0.00 0.00 34 1001.1
20260508201241 61 333 6.1 13.0 0.00 0.00 0.00 40 1001.3
20260508200738 61 283 8.7 11.3 0.00 0.00 0.00 35 1001.2
20260508200234 61 320 5.2 8.7 0.00 0.00 0.00 39 1001.2
20260508195730 60 255 9.6 13.9 0.00 0.00 0.00 35 1001.5
20260508195227 61 305 10.4 15.6 0.00 0.00 0.00 35 1001.6
20260508194724 60 332 5.2 13.9 0.00 0.00 0.00 36 1001.5
20260508194221 60 298 7.0 11.3 0.00 0.00 0.00 36 1001.7
20260508193718 60 297 4.3 13.9 0.00 0.00 0.00 38 1001.7
20260508193214 60 298 8.7 12.2 0.00 0.00 0.00 35 1001.7
20260508192711 60 289 6.1 13.9 0.00 0.00 0.00 38 1001.9
20260508192208 61 265 7.0 13.9 0.00 0.00 0.00 33 1001.8
20260508191705 61 326 2.6 8.7 0.00 0.00 0.00 37 1002.2
20260508191202 60 243 7.8 14.8 0.00 0.00 0.00 36 1002.2
20260508190659 59 221 12.2 15.6 0.00 0.00 0.00 36 1002.1
20260508190155 59 333 5.2 9.6 0.00 0.00 0.00 36 1002.3
20260508185652 60 261 7.0 12.2 0.00 0.00 0.00 37 1002.1
20260508185149 58 321 14.8 19.1 0.00 0.00 0.00 37 1002.2
20260508184647 58 279 6.1 12.2 0.00 0.00 0.00 39 1002.3
20260508184144 58 248 6.1 12.2 0.00 0.00 0.00 40 1002.4
20260508183641 59 277 7.8 13.0 0.00 0.00 0.00 37 1002.3
20260508183136 58 293 5.2 11.3 0.00 0.00 0.00 40 1002.4
20260508182633 58 316 14.8 20.0 0.00 0.00 0.00 39 1002.7
20260508182129 59 324 9.6 15.6 0.00 0.00 0.00 38 1002.6
20260508181625 58 284 5.2 13.0 0.00 0.00 0.00 39 1002.6
20260508181123 58 282 5.2 13.9 0.00 0.00 0.00 41 1002.8
20260508180619 58 318 7.0 9.6 0.00 0.00 0.00 40 1003.0
20260508180116 58 269 4.3 9.6 0.00 0.00 0.00 42 1002.8
20260508175612 57 255 7.0 8.7 0.00 0.00 0.00 41 1002.9
20260508175109 57 268 4.3 8.7 0.00 0.00 0.00 40 1003.1
20260508174607 57 220 8.7 17.4 0.00 0.00 0.00 40 1003.2
20260508174104 57 310 9.6 11.3 0.00 0.00 0.00 41 1003.1
20260508173601 57 247 9.6 13.9 0.00 0.00 0.00 42 1003.4
20260508173056 57 253 5.2 8.7 0.00 0.00 0.00 43 1003.5
20260508172554 57 255 7.8 13.0 0.00 0.00 0.00 42 1003.4
20260508172050 57 273 10.4 13.0 0.00 0.00 0.00 42 1003.7
20260508171547 57 316 7.0 12.2 0.00 0.00 0.00 42 1003.6
20260508171043 57 284 5.2 13.0 0.00 0.00 0.00 44 1003.7
20260508170541 58 272 4.3 6.1 0.00 0.00 0.00 43 1003.7
20260508170038 57 257 3.5 11.3 0.00 0.00 0.00 44 1003.7
20260508165535 55 252 5.2 7.8 0.00 0.00 0.00 47 1004.1
20260508165032 56 329 7.8 8.7 0.00 0.00 0.00 46 1004.4
20260508164528 54 341 7.8 11.3 0.00 0.00 0.00 47 1004.1
20260508164025 54 333 4.3 9.6 0.00 0.00 0.00 50 1004.4
20260508163523 55 302 2.6 7.8 0.00 0.00 0.00 47 1004.1
20260508163019 55 247 5.2 11.3 0.00 0.00 0.00 50 1004.1
20260508162516 55 312 2.6 6.1 0.00 0.00 0.00 47 1004.2
20260508162014 55 299 4.3 7.0 0.00 0.00 0.00 51 1004.4
20260508161510 54 258 4.3 7.0 0.00 0.00 0.00 50 1004.5
20260508161007 55 253 3.5 5.2 0.00 0.00 0.00 49 1004.6
20260508160506 54 307 4.3 6.1 0.00 0.00 0.00 47 1004.5
20260508160003 55 190 2.6 7.0 0.00 0.00 0.00 50 1004.3
20260508155459 55 249 4.3 5.2 0.00 0.00 0.00 50 1004.4
20260508154956 55 286 5.2 6.1 0.00 0.00 0.00 49 1004.6
20260508154454 53 195 2.6 4.3 0.00 0.00 0.00 50 1004.3
20260508153950 54 189 4.3 6.1 0.00 0.00 0.00 49 1004.6
20260508153447 52 261 4.3 7.8 0.00 0.00 0.00 52 1004.8
20260508152943 53 255 4.3 5.2 0.00 0.00 0.00 52 1004.8
20260508152440 53 210 1.7 7.8 0.00 0.00 0.00 52 1004.9
20260508151936 54 222 5.2 8.7 0.00 0.00 0.00 49 1004.7
20260508151433 54 186 3.5 11.3 0.00 0.00 0.00 47 1004.8
20260508150930 54 236 2.6 5.2 0.00 0.00 0.00 52 1005.1
20260508150426 53 200 2.6 6.1 0.00 0.00 0.00 57 1005.0
20260508145922 52 215 3.5 6.1 0.00 0.00 0.00 57 1005.0
20260508145419 52 192 4.3 7.0 0.00 0.00 0.00 58 1005.2
20260508144915 51 294 4.3 7.0 0.00 0.00 0.00 60 1005.4
20260508144414 50 266 6.1 7.8 0.00 0.00 0.00 61 1005.5
20260508143911 50 236 2.6 7.8 0.00 0.00 0.00 62 1005.7
20260508143408 50 199 2.6 5.2 0.00 0.00 0.00 65 1005.4
20260508142904 50 173 2.6 5.2 0.00 0.00 0.00 66 1005.8
20260508142402 49 178 2.6 6.1 0.00 0.00 0.00 66 1005.7
20260508141858 48 258 3.5 6.1 0.00 0.00 0.00 66 1005.7
20260508141354 48 242 3.5 6.1 0.00 0.00 0.00 67 1005.7
20260508140852 48 249 3.5 7.8 0.00 0.00 0.00 68 1005.9
20260508140349 48 224 5.2 8.7 0.00 0.00 0.00 66 1005.7
20260508135845 48 253 2.6 7.0 0.00 0.00 0.00 68 1006.1
20260508135342 47 279 6.1 6.1 0.00 0.00 0.00 69 1006.2
20260508134838 47 312 3.5 7.0 0.00 0.00 0.00 69 1006.0
20260508134334 47 245 5.2 6.1 0.00 0.00 0.00 70 1006.0
20260508133831 46 267 2.6 5.2 0.00 0.00 0.00 72 1006.1
20260508133329 46 277 1.7 4.3 0.00 0.00 0.00 72 1006.1
20260508132826 45 334 1.7 7.0 0.00 0.00 0.00 73 1006.1
20260508132324 43 259 1.7 4.3 0.00 0.00 0.00 76 1006.0
20260508131820 44 282 3.5 6.1 0.00 0.00 0.00 75 1006.2
20260508131316 43 265 3.5 6.1 0.00 0.00 0.00 75 1006.3
20260508130812 43 244 3.5 5.2 0.00 0.00 0.00 75 1006.2
20260508130310 43 304 3.5 4.3 0.00 0.00 0.00 74 1006.2
20260508125806 42 266 3.5 5.2 0.00 0.00 0.00 76 1006.2
20260508125305 42 299 2.6 4.3 0.00 0.00 0.00 76 1006.4
20260508124800 40 302 3.5 5.2 0.00 0.00 0.00 79 1006.2
20260508124257 40 257 1.7 2.6 0.00 0.00 0.00 80 1006.2
20260508123755 39 253 2.6 5.2 0.00 0.00 0.00 78 1006.5
20260508123253 39 294 1.7 1.7 0.00 0.00 0.00 81 1006.2
20260508122749 39 315 1.7 1.7 0.00 0.00 0.00 82 1006.3
20260508122246 38 293 0.9 2.6 0.00 0.00 0.00 83 1006.2
20260508121743 38 267 0.9 2.6 0.00 0.00 0.00 81 1006.1
20260508121242 38 283 1.7 2.6 0.00 0.00 0.00 82 1006.3
20260508120738 38 289 1.7 2.6 0.00 0.00 0.00 81 1006.1
20260508120237 37 292 1.7 2.6 0.00 0.00 0.00 81 1006.2
20260508115734 37 299 1.7 1.7 0.00 0.00 0.00 82 1006.1
20260508115231 37 287 2.6 2.6 0.00 0.00 0.00 81 1005.9
20260508114727 37 273 0.9 1.7 0.00 0.00 0.00 82 1006.0
20260508114224 37 314 1.7 2.6 0.00 0.00 0.00 81 1006.0
20260508113721 37 290 1.7 2.6 0.00 0.00 0.00 80 1006.0
20260508113220 37 297 1.7 1.7 0.00 0.00 0.00 80 1006.0
20260508112715 37 321 2.6 2.6 0.00 0.00 0.00 81 1005.9
20260508112212 36 330 1.7 2.6 0.00 0.00 0.00 84 1005.9
20260508111709 35 310 1.7 2.6 0.00 0.00 0.00 86 1005.6
20260508111207 35 256 0.9 1.7 0.00 0.00 0.00 90 1005.6
20260508110704 33 209 0.9 1.7 0.00 0.00 0.00 90 1005.8
20260508110200 32 144 0.0 0.9 0.00 0.00 0.00 94 1005.8
20260508105655 32 145 0.0 0.9 0.00 0.00 0.00 98 1005.8
20260508105152 32 145 0.0 0.0 0.00 0.00 0.00 97 1005.7
20260508104649 32 149 0.0 0.0 0.00 0.00 0.00 96 1005.6
20260508104146 32 160 0.0 0.0 0.00 0.00 0.00 95 1005.7
20260508103643 32 181 0.0 0.9 0.00 0.00 0.00 95 1005.7
20260508103140 32 195 0.0 0.9 0.00 0.00 0.00 95 1005.8
20260508102637 32 206 0.0 0.9 0.00 0.00 0.00 96 1005.7